sat.trackr.live / text

‹ back to catalog

STARLINK-34918

NORAD 65331 · 2025-189J

PAYLOAD ACTIVE UNKNOWN

§ Identity

Operator
Country
US
Launch date
2025-08-27
Launch site
AFETR
Launch vehicle
Mass (kg)
RCS (m²)

Purposes: comms

External: N2YO · Heavens-Above · Gunter

§ Orbital elements

Epoch: 2026-05-25T04:19:47.798112Z

Period
94.01 min
Inclination
53.1597°
Eccentricity
0.0001497
Mean motion
15.31716082 rev/d
Perigee alt
469.7 km
Apogee alt
471.7 km
Semi-major
6,848.8 km
B*
6.3629e-4
RAAN
211.0372°
Arg perigee
90.8379°
Mean anomaly
269.2794°
Rev number
4,276

§ Raw data

STARLINK-349181 65331U 25189J   26145.18041433  .00019441  00000+0  63629-3 0  99922 65331  53.1597 211.0372 0001497  90.8379 269.2794 15.31716082 42765

JSON: /api/v1/satellites/65331 · /tle

For live sub-satellite position, see the globe view (requires WebGL).

§ Visibility from observer

Set your observer location to see the next 7 days of passes ≥ 10°. The values pass through the URL so the page stays shareable.

No JS? Fill the form by hand. The geolocation button needs JavaScript.